Location: Atbuku
(36.4936°N, 30.4362°E)
Time: 20:13:13
(UTC+00:00)

Cosmos 2333 Rocket - Pass Details

Date: 11 December 2025
Orbit: 837 x 865 km, 70.8° (Epoch: 12 January)

Event Time Altitude Azimuth Distance (km) Brightness Sun altitude
Rises 17:04:18 0° 186° (S) 3,404 5.5 -27.6°
Reaches altitude 10° 17:06:47 10° 181° (S) 2,476 4.7 -28.1°
Enters shadow 17:09:14 26° 170° (S) 1,637 3.6 -28.6°
